www.pogodaiklimat.ru

Погода и климат >> Архив погоды >> Иран >> Bandar Deyr


ПОГОДА в Bandar Deyr

  • Прогноз погоды в Bandar Deyr
  • Монитор погоды в Bandar Deyr
  • Климат города

АРХИВ ПОГОДЫ в Bandar Deyr

Время (UTC), дата Ветер
(напр.,м/с)
 
Видим.   Явления Облачность Т
(С)
Тd
(С)
f
(%)
Тe
(С)
Тes
(С)
Комфортность P
(гПа)
Po
(гПа)
Тmin
(С)
Tmax
(С)
R
(мм)
R24
(мм)
S
(см)
03 15.02 ЮВ 4 8000 м дымка 6/0
[Ac As]
+21.8 +18.3 81 +27 +27 душно 1019.9 1019.4 +20.5
06 15.02 штиль 0 4000 м пыль ясно +23.0 1022.0 1021.5
09 15.02 Ю 2 4000 м пыль 1/0
[Ac trans]
+24.8 +18.5 68 +29 +42 душно 1021.7 1021.2
12 15.02 штиль 0 5000 м пыль 1/0
[Ac trans]
+24.2 +19.5 75 +29 +35 душно 1020.3 1019.8
15 15.02 штиль 0 5000 м пыль ясно +22.8 +18.4 76 +28 +28 душно 1020.6 1020.1 +25.3
18 15.02 штиль 0 5000 м пыль ясно +22.2 +17.8 76 +27 +27 душно 1021.5 1021.0
21 15.02 штиль 0 6000 м пыль ясно +21.0 +17.4 80 +25 +25 комфорт 1020.3 1019.8
00 16.02 штиль 0 7000 м пыль ясно +20.6 +16.9 79 +24 +24 комфорт 1020.3 1019.8
03 16.02 штиль 0 6000 м пыль ясно +18.2 +14.8 81 +18 +18 1020.3 1019.8 +18.2
06 16.02 Ю 2 6000 м пыль ясно +23.2 1021.4 1020.9
09 16.02 Ю 2 6000 м пыль ясно +24.2 +20.2 78 +30 +43 очень
душно
1021.2 1020.7
12 16.02 Ю 2 7000 м дымка ясно +23.4 1019.5 1019.0
15 16.02 З 2 6000 м пыль 4/0
[Ci fib]
+23.2 +18.5 75 +29 +29 душно 1018.9 1018.4 +24.5
18 16.02 штиль 0 6000 м пыль ясно +20.8 +15.8 73 +24 +24 комфорт 1018.7 1018.3
21 16.02 С 2 6000 м пыль ясно +19.4 +15.0 76 +22 +22 комфорт 1018.1 1017.7
00 17.02 С 2 6000 м пыль ясно +18.0 +12.3 69 +19 +19 1016.9 1016.5
03 17.02 С 2 7000 м пыль 5/0
[Ci fib]
+17.6 +13.3 76 +18 +18 1017.0 1016.5 +17.6
06 17.02 С 2 8000 м пыль 4/0
[Ci fib]
+24.0 +12.9 50 +26 +33 жарко 1018.3 1017.8
09 17.02 штиль 0 8000 м пыль ясно +28.2 +9.0 30 +28 +46 жарко 1016.5 1016.1
12 17.02 Ю 3 10 км ясно +30.2 +13.8 37 1014.9 1014.4
15 17.02 штиль 0 10 км 1/0
[Ci fib]
+23.8 +19.5 77 +29 +29 душно 1013.8 1013.4 +30.4
18 17.02 штиль 0 6000 м дымка ясно +21.6 +18.4 82 +26 +26 душно 1013.8 1013.4
21 17.02 штиль 0 6000 м мгла ясно +20.2 +12.4 61 +22 +22 комфорт 1013.0 1012.6
00 18.02 С 2 10 км ясно +18.2 +9.9 58 +19 +19 1011.0 1010.5
03 18.02 СЗ 2 10 км 6/0
[Cs]
+19.8 +9.7 52 +22 +22 комфорт 1011.7 1011.2 +17.6
06 18.02 штиль 0 8000 м пыль 9/3 1000 м
[Sc Ac As]
+25.4 +11.4 42 +27 +30 жарко 1013.1 1012.7
09 18.02 В 2 8000 м мгла 9/3 1050 м
[Sc As op]
+24.5 +18.6 70 +29 +32 душно 1012.4 1011.9
12 18.02 ЮЗ 1 8000 м мгла 6/0
[Cs]
+25.3 +17.9 64 +30 +34 душно 1014.1 1013.7
15 18.02 ЮЗ 2 8000 м мгла 4/0
[Ac trans]
+24.1 +16.4 62 +28 +28 душно 1010.4 1009.9 +26.5
18 18.02 З 1 8000 м мгла 4/0
[Ac trans]
+22.1 +15.8 67 +26 +26 душно 1011.0 1010.6
21 18.02 СЗ 2 8000 м мгла 4/0
[Ac trans]
+20.1 +13.9 67 +23 +23 комфорт 1010.9 1010.5
00 19.02 СЗ 5 8000 м пыль ясно +19.9 +14.6 72 +22 +22 комфорт 1009.7 1009.3
03 19.02 СЗ 6 8000 м мгла 6/0
[Ac As]
+19.7 +14.0 70 +21 +21 комфорт 1011.0 1010.6 +19.4
06 19.02 СЗ 6 7000 м пыль 5/0
[Ac trans]
+21.2 +14.8 67 +24 +26 комфорт 1012.6 1012.1
09 19.02 СЗ 6 6000 м пыль ясно +25.8 +6.8 30 +26 +31 жарко 1013.0 1012.6
12 19.02 СЗ 5 7000 м пыль ясно +27.2 1012.1 1011.6
15 19.02 СЗ 4 7000 м пыль ясно +23.0 +3.0 27 +23 +23 комфорт 1013.0 1012.5 +27.3
18 19.02 СЗ 7 6000 м пыльный позёмок ясно +19.8 +6.0 40 +20 +20 1014.0 1013.6
21 19.02 СЗ 5 6000 м пыль ясно +18.4 +7.2 48 +18 +18 1013.6 1013.2
00 20.02 СЗ 3 6000 м пыль ясно +18.0 +5.4 43 +18 +18 1013.7 1013.3
03 20.02 З 2 6000 м пыль 6/0
[Ac trans]
+18.6 +4.9 40 +19 +19 1013.7 1013.3 +17.0
06 20.02 СЗ 5 4000 м пыль ясно +21.0 +6.4 39 +22 +26 комфорт 1014.7 1014.2
09 20.02 СЗ 4 6000 м пыль ясно +25.0 +5.4 28 +25 +34 комфорт 1013.8 1013.4
12 20.02 З 2 6000 м пыль 8/0
[Cs]
+27.8 +6.1 25 +27 +31 жарко 1012.4 1011.9
15 20.02 З 3 6000 м пыль 3/0
[Ci fib]
+23.0 +9.3 42 +25 +25 комфорт 1012.4 1011.9 +28.0
18 20.02 СЗ 5 6000 м пыль 4/0
[Ci fib]
+20.0 +8.9 49 +21 +21 комфорт 1012.5 1012.0
21 20.02 СЗ 2 7000 м пыль 8/0
[Ac As]
+19.0 +8.7 51 +20 +20 1012.1 1011.6
00 21.02 штиль 0 7000 м пыль 8/0
[Ac As]
+18.0 +7.8 51 +18 +18 1012.2 1011.8
03 21.02 штиль 0 7000 м пыль 4/0
[Cs]
+15.6 +9.4 67 +15 +15 1013.1 1012.7 +15.5
06 21.02 С 2 8000 м пыль ясно +21.1 +10.7 51 1014.0 1013.6
09 21.02 ЮЗ 3 8000 м пыль 6/0
[Cs]
+23.5 +12.3 49 +25 +35 комфорт 1013.3 1012.9
12 21.02 ЮЗ 2 8000 м мгла 6/0
[Cs]
+23.9 +14.7 56 +27 +31 жарко 1011.5 1011.1
15 21.02 Ю 2 7000 м мгла 8/0
[Ac trans Cs]
+22.2 +15.2 65 +26 +26 душно 1011.5 1011.1 +24.2
18 21.02 С 1 7000 м мгла 5/0
[Ac trans Cs]
+21.1 +14.7 67 +24 +24 комфорт 1012.5 1012.1
21 21.02 СВ 1 7000 м мгла 6/0
[Cs]
+20.3 +12.6 61 +23 +23 комфорт 1012.1 1011.7

 

Местоположение метеостанции Bandar Deyr (Иран): широта 27.83 долгота 51.93 высота над уровнем моря 4 м.

В архиве по умолчанию представлена погода в Bandar Deyr за последнюю неделю. Архивные данные за месяц целиком и за предыдущие месяцы, начиная с января 2011 года, Вы можете получить, выбрав интересующий диапазон дат из раскрывающегося списка и нажав кнопку "Ввод!".

Внимание! Время в таблицах - всемирное. Для получения местного времени необходимо прибавить поправку, которая в Bandar Deyr равна 3.5 ч.

Смотрите также архив погоды в соседних городах и на ближайших метеорологических станциях:

Погода в Bushehr (Иран) (163 км)
Погода в Bushehr Airport (Иран) (167 км)
Погода в Shiraz (Иран) (198 км)
Погода в Fasa (Иран) (213 км)
Погода в Bahrain (Бахрейн) (215 км)
Погода в Khark (Иран) (224 км)
Погода в Dhahran (Саудовская Аравия) (246 км)
Погода в Kish Island (Иран) (251 км)
Погода в King Fahd Int Airport (Саудовская Аравия) (259 км)
Погода в Hamad Int Airport (Катар) (287 км)

Пояснения к столбцам:

Ветер - указаны скорость ветра в м/с - средняя за 10 мин, порывы в срок и между сроками (в фигурных скобках) и направление, откуда дует ветер: С - северный, СВ - северо-восточный, В - восточный, ЮВ - юго-восточный, Ю - южный, ЮЗ - юго-западный, З - западный, СЗ - северо-западный.
Видимость - горизонтальная дальность видимости в метрах или километрах. При видимости от 1 до 10 км при отсутствии осадков обычно наблюдается дымка, при ухудшении видимости до 1 км и менее - туман. В сухую погоду видимость может ухудшаться дымом, пылью или мглою.
Явления - указаны атмосферные явления, наблюдавшиеся в срок или в последний час перед сроком; фигурными скобками обозначены явления, наблюдавшиеся между сроками (за 1-3 часа до срока); квадратными скобками обозначены град или гололедные отложения с указанием их диаметра в мм.
Облачность - указаны через наклонную черту общая и нижняя облачность в баллах и высота нижней границы облаков в метрах; квадратными скобками обозначены формы облаков: Ci - перистые, Cs - перисто-слоистые, Cc - перисто-кучевые, Ac - высококучевые, As - высокослоистые, Sc - слоисто-кучевые, Ns - слоисто-дождевые, Cu - кучевые, Cb - кучево-дождевые. Подробнее классификацию облаков см. в Атласе облаков (PDF).
T - Температура воздуха - температура, измеренная на высоте 2 м над землей.
Td - Температура точки росы - температура, при понижении до которой содержащийся в воздухе водяной пар достигнет насыщения.
f - Относительная влажность воздуха - влажноcть воздуха, измеренная на высоте 2 м над землей.
Te - Эффективная температура - температура, которую ощущает одетый по сезону человек в тени. Характеристика душности погоды. При расчете учитывается влияние влажности воздуха и скорости ветра на теплоощущения человека.
Tes - Эффективная температура на солнце - температура, которую ощущает человек, с поправкой на солнечный нагрев. Характеристика знойности погоды. Зависит от высоты солнца над горизонтом, облачности и скорости ветра. Ночью, в пасмурную погоду, а также при ветре 12 м/с и более поправка равна нулю.
P - Атмосферное давление - приведенное к уровню моря атмосферное давление.
Po - Атмосферное давление - измеренное на уровне метеостанции атмосферное давление.
Tmin - Минимальная температура - минимум температуры воздуха на высоте 2 м над землей.
Tmax - Максимальная температура - максимум температуры воздуха на высоте 2 м над землей.
R - Количество осадков - Количество выпавших осадков за период времени, мм. При наведении курсора мыши на число - период времени, за который выпало указанное количество осадков.
R24 - Количество осадков - Количество выпавших осадков за 24 часа, мм.
S - Снежный покров - Высота снежного покрова, см. При наведении курсора мыши на число - состояние снежного покрова и степень покрытия местности в баллах.